MyTimes logo

TIMES

Webb Imagery

15/02/2001

YMCA at Boroondara Aquathon Series - Race #5

(1.5km run / 250m swim) x3

(Click on competitor name to view personalised results)

Name
Race #
Category
Team Name
Time
(h:mm:ss)
Avg Speed
km/hr
OAll
Place
Cat
Place
BIRCH Andrew#637Junior Male0:26:02 12.1 11
LACHLAN Boyd#642Teams (all ages)0:27:12 11.6 21
FENNELL & CO Team#602Teams (all ages)0:27:42 11.4 32
TRETTEL Tony#535Open Male0:28:04 11.2 41
NEWMAN Russell#508Open Male0:28:32 11 52
ARMSTRONG Graeme#610Masters Male0:29:05 10.8 61
COLEMAN Quinn#552Open Male0:29:13 10.8 73
LUKE Robert#640Junior Male0:29:52 10.5 82
COTTER Michael#633Teams (all ages)0:29:52 10.5 93
DENNIS Jason#503Open Male0:29:58 10.5 104
GARRETT Justin#505Open Male0:29:58 10.5 115
WOOD Tom#631School Team Male0:30:22 10.4 121
GUNCLACH Hugh#615Junior Male0:30:36 10.3 133
SHEDDEN Mark#514Open Male0:30:52 10.2 146
CURRY Sam#543Open Male0:30:55 10.2 157
CROW Susan#619Teams (all ages)0:31:11 10.1 164
LORETO School#604School Team Female0:31:22 10 171
GAILBRAITH Dana#618Masters Male0:31:22 10 182
CURRY Matt#539Open Male0:31:25 10 198
YMCA (APARC) Team#608Teams (all ages)0:31:28 10 205
FURNELL Peter#644School Team Male0:31:47 9.9 212
HYLAND Ben#616Junior Male0:32:05 9.8 224
OAKLEY Elly#636Teams (all ages)0:32:09 9.8 236
COLLINS Mark#611Masters Male0:32:13 9.8 243
THEK Chris#544Open Male0:32:19 9.7 259
MARQUARDT Tim#549Open Male0:32:31 9.7 2610
QUINN James#647School Team Male0:32:35 9.7 273
LOVE John#546Open Male0:32:37 9.7 2811
GIBELLINI Robert#536Open Male0:33:08 9.5 2912
WILLISAMS Kellie#522Open Female0:33:30 9.4 301
EWART Chris#641Masters Male0:33:31 9.4 314
CURNOW Warren#620Teams (all ages)0:34:03 9.3 327
HOWES Catriona#526Open Female0:34:09 9.2 332
BALDING Rachel#541Open Female0:34:11 9.2 343
PLC School#605School Team Female0:34:11 9.2 352
WOODS Matthew#624Teams (all ages)0:34:23 9.2 368
BROWN Ron#524Open Male0:34:26 9.1 3713
WALDREN Neil#513Open Male0:34:48 9.1 3814
FLEMING Nick#625School Team Male0:34:56 9 394
NORTHEAST Simon#534Open Male0:35:06 9 4015
TURTLES Team#607Teams (all ages)0:35:07 9 419
DEVINE Megan#630Teams (all ages)0:35:10 9 4210
RODWELL Steve#635Masters Male0:35:14 8.9 435
HYLAND Robert#617Junior Male0:35:15 8.9 445
ACOTT John#629Masters Male0:35:24 8.9 456
CONNOLLY Sean#538Open Male0:35:27 8.9 4616
MUMMERY Glen#521Open Male0:35:48 8.8 4717
FINCH Sara#542Open Female0:35:49 8.8 484
DINNISON Priscilla#622Masters Female0:35:51 8.8 491
COLEMAN Donna#554Open Female0:35:58 8.8 505
CROSS Jo#628Teams (all ages)0:36:00 8.8 5111
BOURKE Jack#634School Team Male0:36:09 8.7 525
EDIS Tristan#545Open Male0:36:18 8.7 5318
NORTON-OLD Kim#645School Team Female0:36:23 8.7 543
NORTHEAST Mark#550Open Male0:36:48 8.6 5519
OGILVIE Nicholas#518Open Male0:36:54 8.5 5620
AITKEN Chris#523Open Male0:37:01 8.5 5721
KITCH Leon#525Open Male0:37:06 8.5 5822
GOLDS James#548Open Male0:37:09 8.5 5923
TUFFNELL Alistair#537Open Male0:37:24 8.4 6024
SIMPSON Chris#533Open Male0:37:27 8.4 6125
CRAMER-R'TS Peter#638Masters Male0:38:09 8.3 627
ZERNA Warren#530Open Male0:38:27 8.2 6326
GOODING Tarryn#547Open Female0:38:49 8.1 646
MARSHALL Peter#556Open Male0:38:52 8.1 6527
MEE Virginia#506Open Female0:38:53 8.1 667
SMITH Greg#627Masters Male0:38:55 8.1 678
PEARSON Melinda#510Open Female0:38:57 8.1 688
CALDWELL Nicole#626Teams (all ages)0:39:03 8.1 6912
FELTHAM Cameron#553Open Male0:39:15 8 7028
STANBOROUGH Emma#555Open Female0:39:22 8 719
BLACKBURN Julie#528Open Female0:39:35 8 7210
MOIGNARD Alice#507Open Female0:40:07 7.9 7311
O DONOGHUE Karen#532Open Female0:40:14 7.8 7412
SOULSBY Rebecca#531Open Female0:40:27 7.8 7513
ATKINSON Kim#509Open Female0:41:03 7.7 7614
BLACKBOURN Hayley#529Open Male0:41:40 7.6 7729
O'BRIEN Team#614Teams (all ages)0:41:51 7.5 7813
THEK Grace#632Junior Female0:42:19 7.4 791
BOURNE Peter#643Masters Male0:42:46 7.4 809
MARSHALL Doug#646Masters Male0:43:29 7.2 8110
EWART Daimon#639Junior Male0:45:01 7 826
DINNISON Nicholas#621Junior Male0:45:36 6.9 837
EWART Sue#551Open Female0:45:49 6.9 8415
HICKINSON Amanda#519Open Female0:48:17 6.5 8516
DINNISON Victoria#623Junior Female0:48:56 6.4 862